timestamp,surface_pressure_avg,surface_temp_avg,battery_voltage,lat,long
2017-10-28 00:00:00+00:00,251.5514,10.35,13.05,47.84626,-54.09684
2017-10-28 00:10:00+00:00,247.9981,10.33,12.97,47.84626,-54.09684
2017-10-28 00:20:00+00:00,251.0181,10.34,13.05,47.84626,-54.09684
2017-10-28 00:30:00+00:00,251.1214,10.36,13.05,47.84626,-54.09684
2017-10-28 00:40:00+00:00,250.6864,10.35,13.05,47.84626,-54.09684
2017-10-28 00:50:00+00:00,251.3648,10.35,13.05,47.84626,-54.09684
2017-10-28 01:00:00+00:00,254.9114,10.33,13.05,47.84626,-54.09684
2017-10-28 01:10:00+00:00,254.2848,10.35,12.97,47.84626,-54.09684
2017-10-28 01:20:00+00:00,255.1014,10.36,13.05,47.84626,-54.09684
2017-10-28 01:30:00+00:00,257.8931,10.36,13.05,47.84626,-54.09684
2017-10-28 01:40:00+00:00,264.0947,10.35,13.05,47.84626,-54.09684
2017-10-28 01:50:00+00:00,266.8847,10.32,13.05,47.84626,-54.09684
2017-10-28 02:00:00+00:00,268.1381,10.31,12.97,47.84626,-54.09684
2017-10-28 02:10:00+00:00,269.1147,10.3,12.97,47.84626,-54.09684
2017-10-28 02:20:00+00:00,272.7798,10.3,12.97,47.84626,-54.09684
2017-10-28 02:30:00+00:00,274.9498,10.3,13.05,47.84626,-54.09684
2017-10-28 02:40:00+00:00,277.2547,10.3,13.05,47.84626,-54.09684
2017-10-28 02:50:00+00:00,280.1181,10.3,13.05,47.84626,-54.09684
2017-10-28 03:00:00+00:00,283.1647,10.3,12.97,47.84626,-54.09684
2017-10-28 03:10:00+00:00,285.0131,10.3,12.89,47.84626,-54.09684
2017-10-28 03:20:00+00:00,289.8047,10.3,12.97,47.84626,-54.09684
2017-10-28 03:30:00+00:00,294.4963,10.3,12.97,47.84626,-54.09684
2017-10-28 03:40:00+00:00,295.3347,10.3,12.97,47.84626,-54.09684
2017-10-28 03:50:00+00:00,296.333,10.3,13.05,47.84626,-54.09684
2017-10-28 04:00:00+00:00,298.1414,10.3,12.97,47.84626,-54.09684
2017-10-28 04:10:00+00:00,300.1464,10.3,12.89,47.84626,-54.09684
2017-10-28 04:20:00+00:00,300.553,10.3,12.97,47.84626,-54.09684
2017-10-28 04:30:00+00:00,301.2014,10.3,12.97,47.84626,-54.09684
2017-10-28 04:40:00+00:00,303.7346,10.3,12.97,47.84626,-54.09684
2017-10-28 04:50:00+00:00,306.6329,10.3,12.97,47.84626,-54.09684
2017-10-28 05:00:00+00:00,311.0596,10.3,12.97,47.84626,-54.09684
2017-10-28 05:10:00+00:00,317.098,10.3,12.89,47.84626,-54.09684
2017-10-28 05:20:00+00:00,317.3029,10.3,12.97,47.84626,-54.09684
2017-10-28 05:30:00+00:00,314.0863,10.3,12.97,47.84626,-54.09684
2017-10-28 05:40:00+00:00,312.433,10.3,12.97,47.84626,-54.09684
2017-10-28 05:50:00+00:00,315.0063,10.3,12.97,47.84626,-54.09684
2017-10-28 06:00:00+00:00,312.0763,10.3,12.89,47.84626,-54.09684
2017-10-28 06:10:00+00:00,308.6697,10.3,12.89,47.84626,-54.09684
2017-10-28 06:20:00+00:00,310.5214,10.3,12.97,47.84626,-54.09684
2017-10-28 06:30:00+00:00,311.613,10.33,12.97,47.84626,-54.09684
2017-10-28 06:40:00+00:00,307.5947,10.3,12.97,47.84626,-54.09684
2017-10-28 06:50:00+00:00,305.1363,10.3,12.97,47.84626,-54.09684
2017-10-28 07:00:00+00:00,301.9913,10.32,12.89,47.84626,-54.09684
2017-10-28 07:10:00+00:00,295.1964,10.38,12.81,47.84626,-54.09684
2017-10-28 07:20:00+00:00,289.283,10.4,12.89,47.84626,-54.09684
2017-10-28 07:30:00+00:00,282.4947,10.4,12.89,47.84626,-54.09684
2017-10-28 07:40:00+00:00,275.5697,10.4,12.97,47.84626,-54.09684
2017-10-28 07:50:00+00:00,273.1881,10.4,12.97,47.84626,-54.09684
2017-10-28 08:00:00+00:00,270.3797,10.4,12.89,47.84626,-54.09684
2017-10-28 08:10:00+00:00,264.9931,10.4,12.81,47.84626,-54.09684
2017-10-28 08:20:00+00:00,260.708,10.45,12.89,47.84626,-54.09684
2017-10-28 08:30:00+00:00,257.9648,10.48,12.89,47.84626,-54.09684
2017-10-28 08:40:00+00:00,251.3547,10.49,12.89,47.84626,-54.09684
2017-10-28 08:50:00+00:00,246.3464,10.5,12.89,47.84626,-54.09684
2017-10-28 09:00:00+00:00,245.8314,10.5,12.89,47.84626,-54.09684
2017-10-28 09:10:00+00:00,243.7464,10.5,12.81,47.84626,-54.09684
2017-10-28 09:20:00+00:00,238.9598,10.5,12.89,47.84626,-54.09684
2017-10-28 09:30:00+00:00,234.8281,10.5,12.89,47.84626,-54.09684
2017-10-28 09:40:00+00:00,233.5397,10.5,12.89,47.84626,-54.09684
2017-10-28 09:50:00+00:00,232.7281,10.5,12.89,47.84626,-54.09684
2017-10-28 10:00:00+00:00,232.8981,10.5,12.89,47.84626,-54.09684
2017-10-28 10:10:00+00:00,233.2264,10.5,12.81,47.84626,-54.09684
2017-10-28 10:20:00+00:00,233.5448,10.55,12.89,47.84626,-54.09684
2017-10-28 10:30:00+00:00,233.4931,10.59,12.89,47.84626,-54.09684
2017-10-28 10:40:00+00:00,234.5148,10.6,12.89,47.84626,-54.09684
2017-10-28 10:50:00+00:00,236.2248,10.6,12.89,47.84626,-54.09684
2017-10-28 11:00:00+00:00,236.9681,10.6,12.81,47.84626,-54.09684
2017-10-28 11:10:00+00:00,236.6997,10.6,12.81,47.84626,-54.09684
2017-10-28 11:20:00+00:00,239.3647,10.6,12.89,47.84626,-54.09684
2017-10-28 11:30:00+00:00,243.0597,10.6,12.89,47.84626,-54.09684
2017-10-28 11:40:00+00:00,244.0748,10.6,12.89,47.84626,-54.09684
2017-10-28 11:50:00+00:00,244.083,10.6,12.89,47.84626,-54.09684
2017-10-28 12:00:00+00:00,246.0314,10.6,12.81,47.84626,-54.09684
2017-10-28 12:10:00+00:00,249.5264,10.6,12.81,47.84626,-54.09684
2017-10-28 12:20:00+00:00,248.3097,10.6,12.89,47.84626,-54.09684
2017-10-28 12:30:00+00:00,246.7664,10.6,12.89,47.84626,-54.09684
2017-10-28 12:40:00+00:00,249.3414,10.6,12.89,47.84626,-54.09684
2017-10-28 12:50:00+00:00,253.0097,10.6,12.97,47.84626,-54.09684
2017-10-28 13:00:00+00:00,253.6014,10.6,12.97,47.84626,-54.09684
2017-10-28 13:10:00+00:00,255.7181,10.6,12.89,47.84626,-54.09684
2017-10-28 13:20:00+00:00,258.5148,10.6,12.97,47.84626,-54.09684
2017-10-28 13:30:00+00:00,260.1981,10.6,12.97,47.84626,-54.09684
2017-10-28 13:40:00+00:00,261.3814,10.6,12.97,47.84626,-54.09684
2017-10-28 13:50:00+00:00,264.4314,10.57,13.05,47.84626,-54.09684
2017-10-28 14:00:00+00:00,265.9748,10.5,13.13,47.84626,-54.09684
2017-10-28 14:10:00+00:00,268.6664,10.43,13.13,47.84626,-54.09684
2017-10-28 14:20:00+00:00,273.4247,10.4,13.29,47.84626,-54.09684
2017-10-28 14:30:00+00:00,277.9364,10.45,13.29,47.84626,-54.09684
2017-10-28 14:40:00+00:00,278.6214,10.47,13.44,47.84626,-54.09684
2017-10-28 14:50:00+00:00,281.6948,10.45,13.53,47.84626,-54.09684
2017-10-28 15:00:00+00:00,285.8614,10.48,13.44,47.84626,-54.09684
2017-10-28 15:10:00+00:00,291.2813,10.5,13.29,47.84626,-54.09684
2017-10-28 15:20:00+00:00,294.5964,10.5,13.44,47.84626,-54.09684
2017-10-28 15:30:00+00:00,299.8613,10.5,13.53,47.84626,-54.09684
2017-10-28 15:40:00+00:00,302.423,10.5,13.44,47.84626,-54.09684
2017-10-28 15:50:00+00:00,307.0063,10.5,13.76,47.84626,-54.09684
2017-10-28 16:00:00+00:00,310.6013,10.5,13.53,47.84626,-54.09684
2017-10-28 16:10:00+00:00,315.4863,10.5,13.37,47.84626,-54.09684
2017-10-28 16:20:00+00:00,317.9847,10.5,13.44,47.84626,-54.09684
2017-10-28 16:30:00+00:00,319.8746,10.5,13.37,47.84626,-54.09684
2017-10-28 16:40:00+00:00,322.543,10.5,13.37,47.84626,-54.09684
2017-10-28 16:50:00+00:00,322.363,10.5,13.44,47.84626,-54.09684
2017-10-28 17:00:00+00:00,324.6463,10.47,13.76,47.84626,-54.09684
2017-10-28 17:10:00+00:00,327.2864,10.45,13.68,47.84626,-54.09684
2017-10-28 17:20:00+00:00,328.508,10.47,13.68,47.84626,-54.09684
2017-10-28 17:30:00+00:00,329.6013,10.45,13.6,47.84626,-54.09684
2017-10-28 17:40:00+00:00,329.7829,10.46,13.44,47.84626,-54.09684
2017-10-28 17:50:00+00:00,329.088,10.49,13.84,47.84626,-54.09684
2017-10-28 18:00:00+00:00,326.6846,10.49,13.6,47.84626,-54.09684
2017-10-28 18:10:00+00:00,329.4064,10.47,13.29,47.84626,-54.09684
2017-10-28 18:20:00+00:00,332.7429,10.48,13.44,47.84626,-54.09684
2017-10-28 18:30:00+00:00,329.583,10.5,13.68,47.84626,-54.09684
2017-10-28 18:40:00+00:00,327.493,10.5,13.76,47.84626,-54.09684
2017-10-28 18:50:00+00:00,328.7697,10.5,13.84,47.84626,-54.09684
2017-10-28 19:00:00+00:00,326.388,10.54,13.68,47.84626,-54.09684
2017-10-28 19:10:00+00:00,322.0847,10.6,13.37,47.84626,-54.09684
2017-10-28 19:20:00+00:00,323.3362,10.59,13.37,47.84626,-54.09684
2017-10-28 19:30:00+00:00,319.068,10.6,13.29,47.84626,-54.09684
2017-10-28 19:40:00+00:00,307.308,10.6,13.29,47.84626,-54.09684
2017-10-28 19:50:00+00:00,304.7913,10.55,13.21,47.84626,-54.09684
2017-10-28 20:00:00+00:00,308.2981,10.52,13.13,47.84626,-54.09684
2017-10-28 20:10:00+00:00,301.3264,10.64,13.05,47.84626,-54.09684
2017-10-28 20:20:00+00:00,292.4547,10.7,13.13,47.84626,-54.09684
2017-10-28 20:30:00+00:00,293.9314,10.6,13.13,47.84626,-54.09684
2017-10-28 20:40:00+00:00,293.9781,10.6,13.13,47.84626,-54.09684
2017-10-28 20:50:00+00:00,285.313,10.69,13.13,47.84626,-54.09684
2017-10-28 21:00:00+00:00,280.5881,10.7,13.05,47.84626,-54.09684
2017-10-28 21:10:00+00:00,280.5148,10.65,13.05,47.84626,-54.09684
2017-10-28 21:20:00+00:00,274.118,10.72,13.05,47.84626,-54.09684
2017-10-28 21:30:00+00:00,269.3214,10.78,13.05,47.84626,-54.09684
2017-10-28 21:40:00+00:00,269.1148,10.8,13.05,47.84626,-54.09684
2017-10-28 21:50:00+00:00,265.3698,10.8,13.05,47.84626,-54.09684
2017-10-28 22:00:00+00:00,258.0314,10.8,13.05,47.84626,-54.09684
2017-10-28 22:10:00+00:00,257.7164,10.8,12.97,47.84626,-54.09684
2017-10-28 22:20:00+00:00,257.6081,10.8,13.05,47.84626,-54.09684
2017-10-28 22:30:00+00:00,254.1048,10.8,13.05,47.84626,-54.09684
2017-10-28 22:40:00+00:00,251.3697,10.7,13.05,47.84626,-54.09684
2017-10-28 22:50:00+00:00,254.083,10.7,13.05,47.84626,-54.09684
2017-10-28 23:00:00+00:00,251.1547,10.7,12.97,47.84626,-54.09684
2017-10-28 23:10:00+00:00,247.4831,10.71,12.97,47.84626,-54.09684
2017-10-28 23:20:00+00:00,250.2564,10.7,13.05,47.84626,-54.09684
2017-10-28 23:30:00+00:00,250.2331,10.7,13.05,47.84626,-54.09684
2017-10-28 23:40:00+00:00,244.4364,10.7,13.05,47.84626,-54.09684
2017-10-28 23:50:00+00:00,244.1414,10.7,13.05,47.84626,-54.09684
